This demonstration page uses our WeatherBlox Daily Observations layout. Learn more.

Hourly Observations for December 12, 2019

Temp ( °F °C ) Dew Point ( °F °C ) Humidity (%) Winds ( mph kmh ) Pressure ( in mb ) Visibility ( mi km ) Precip ( " mm )
12:15 am 00:15 Clear 36 2 31 -0.7 83 83 S 12 19 30.01 1016 10 16.0934 0 0
12:35 am 00:35 Clear 35 1.8 31 -0.7 84 84 S 10 17 30 1016 10 16.0934 0 0
12:55 am 00:55 Clear 35 1.5 31 -0.6 86 86 S 9 15 30 1016 10 16.0934 0 0
1:15 am 01:15 Clear 34 1.2 31 -0.6 88 88 S 9 15 29.99 1016 10 16.0934 0 0
1:35 am 01:35 Clear 34 1.2 31 -0.5 89 89 SSW 5 7 30 1016 10 16.0934 0 0
1:55 am 01:55 Clear 35 1.7 32 0 89 89 SSW 9 15 30 1016 10 16.0934 0 0
2:15 am 02:15 Clear 36 2.1 32 0 86 86 SSW 8 13 30 1016 10 16.0934 0 0
2:35 am 02:35 Clear 36 2.1 32 0.2 87 87 SW 9 15 29.99 1016 10 16.0934 0 0
2:55 am 02:55 Clear 35 1.9 32 0 87 87 SW 6 9 30.01 1016 10 16.0934 0 0
3:15 am 03:15 Clear 34 1.3 32 -0.1 91 91 WSW 7 11 30.01 1016 10 16.0934 0 0
3:35 am 03:35 Clear 35 1.6 32 -0.1 89 89 WSW 7 11 30.01 1016 10 16.0934 0 0
3:55 am 03:55 Clear 33 0.5 30 -1 90 90 W 7 11 30.02 1017 10 16.0934 0 0
4:15 am 04:15 Clear 32 -0.2 29 -1.6 90 90 W 7 11 30.03 1017 10 16.0934 0 0
4:35 am 04:35 Clear 31 -0.6 28 -2.2 89 89 WNW 6 9 30.03 1017 10 16.0934 0 0
4:55 am 04:55 Clear 30 -1 28 -2.5 90 90 WNW 9 15 30.04 1017 10 16.0934 0 0
5:15 am 05:15 Clear 29 -1.8 26 -3.4 89 89 NW 8 13 30.05 1018 10 16.0934 0 0
5:35 am 05:35 Clear 29 -1.5 27 -2.9 90 90 NW 8 13 30.07 1018 10 16.0934 0 0
5:55 am 05:55 Clear 30 -1 27 -3 86 86 NW 7 11 30.07 1018 10 16.0934 0 0
6:15 am 06:15 Clear 31 -0.5 27 -3 83 83 NNW 7 11 30.07 1018 10 16.0934 0 0
6:35 am 06:35 Clear 31 -0.6 26 -3.1 83 83 NNW 8 13 30.08 1019 10 16.0934 0 0
6:55 am 06:55 Clear 31 -0.7 26 -3.2 83 83 NW 8 13 30.09 1019 10 16.0934 0 0
7:15 am 07:15 Clear 30 -1 26 -3.5 83 83 NW 6 9 30.1 1019 10 16.0934 0 0
7:35 am 07:35 Clear 30 -1.1 26 -3.5 84 84 NW 7 11 30.11 1019 10 16.0934 0 0
7:55 am 07:55 Sunny 30 -1.1 26 -3.5 84 84 NNW 7 11 30.12 1020 10 16.0934 0 0
8:15 am 08:15 Sunny 31 -0.5 26 -3.2 82 82 NNW 8 13 30.1 1019 10 16.0934 0 0
8:35 am 08:35 Sunny 31 -0.5 26 -3.3 82 82 NW 7 11 30.12 1020 10 16.0934 0 0
8:55 am 08:55 Sunny 32 0 27 -2.8 82 82 NW 9 15 30.14 1020 10 16.0934 0 0
9:15 am 09:15 Sunny 34 0.9 28 -2 81 81 NNW 8 13 30.14 1021 10 16.0934 0 0
9:35 am 09:35 Sunny 36 2.2 29 -1.6 76 76 NNW 8 13 30.12 1020 10 16.0934 0 0
9:55 am 09:55 Sunny 37 2.9 30 -1.3 74 74 NNW 8 13 30.12 1020 10 16.0934 0 0
10:15 am 10:15 Sunny 38 3.5 30 -1.2 72 72 NNW 7 11 30.12 1020 10 16.0934 0 0
10:35 am 10:35 Sunny 39 3.9 30 -1 71 71 NNW 7 11 30.12 1020 10 16.0934 0 0
10:55 am 10:55 Sunny 41 4.8 31 -0.7 68 68 NW 6 9 30.11 1020 10 16.0934 0 0
11:15 am 11:15 Sunny 41 5.1 30 -0.9 66 66 Calm 30.1 1019 10 16.0934 0 0
11:35 am 11:35 Sunny 41 5 31 -0.6 67 67 NE 6 9 30.07 1018 10 16.0934 0 0
11:55 am 11:55 Sunny 41 5 31 -0.7 67 67 ENE 7 11 30.06 1018 10 16.0934 0 0
12:15 pm 12:15 Sunny 41 4.8 31 -0.5 69 69 NNE 3 6 30.07 1018 10 16.0934 0 0
12:35 pm 12:35 Sunny 41 5 31 -0.3 69 69 Calm 30.06 1018 10 16.0934 0 0
12:55 pm 12:55 Sunny 41 5.1 32 -0.2 69 69 Calm 30.05 1018 10 16.0934 0 0
1:15 pm 13:15 Sunny 44 6.6 32 0.1 64 64 E 3 6 30.02 1017 10 16.0934 0 0
1:35 pm 13:35 Sunny 44 6.4 32 0 64 64 ESE 3 6 30.02 1016 10 16.0934 0 0
1:55 pm 13:55 Sunny 44 6.5 32 0 64 64 Calm 30.02 1017 10 16.0934 0 0
2:15 pm 14:15 Mostly Cloudy 45 7.1 32 0.1 61 61 Calm 30.01 1016 10 16.0934 0 0
2:35 pm 14:35 Partly Cloudy 45 7.1 32 0.1 61 61 Calm 30.01 1016 10 16.0934 0 0
2:55 pm 14:55 Sunny 46 7.6 32 0.2 60 60 SSE 3 6 30 1016 10 16.0934 0 0
3:15 pm 15:15 Sunny 46 7.8 32 0.2 59 59 S 5 7 30 1016 10 16.0934 0 0
3:35 pm 15:35 Sunny 46 7.7 32 0.2 59 59 S 5 7 29.99 1016 10 16.0934 0 0
3:55 pm 15:55 Sunny 45 7 32 0.1 62 62 S 3 6 30 1016 10 16.0934 0 0
4:15 pm 16:15 Sunny 44 6.7 32 0 63 63 S 3 6 30.01 1016 10 16.0934 0 0
4:35 pm 16:35 Sunny 44 6.5 32 0 64 64 S 6 9 30.01 1016 10 16.0934 0 0
4:55 pm 16:55 Partly Cloudy 42 5.7 32 0 67 67 SSW 5 7 30.02 1017 10 16.0934 0 0
5:15 pm 17:15 Mostly Cloudy 40 4.6 32 -0.1 72 72 S 5 7 30.03 1017 10 16.0934 0 0
5:35 pm 17:35 Mostly Cloudy 38 3.4 31 -0.5 76 76 S 3 6 30.03 1017 10 16.0934 0 0
5:55 pm 17:55 Cloudy 39 3.7 31 -0.5 74 74 S 3 6 30.03 1017 10 16.0934 0 0
6:15 pm 18:15 Cloudy 38 3.2 31 -0.6 76 76 S 6 9 30.03 1017 10 16.0934 0 0
6:35 pm 18:35 Cloudy 38 3.1 31 -0.7 76 76 S 6 9 30.04 1017 10 16.0934 0 0
6:55 pm 18:55 Mostly Cloudy 36 2.4 30 -1.2 77 77 S 6 9 30.04 1017 10 16.0934 0 0
7:15 pm 19:15 Mostly Cloudy 35 1.7 29 -1.4 80 80 SSE 6 9 30.05 1018 10 16.0934 0 0
7:35 pm 19:35 Partly Cloudy 34 1 29 -1.7 82 82 S 6 9 30.06 1018 10 16.0934 0 0
7:55 pm 19:55 Clear 33 0.5 29 -1.9 84 84 S 6 9 30.06 1018 10 16.0934 0 0
8:15 pm 20:15 Clear 32 0 28 -2 87 87 S 5 7 30.06 1018 10 16.0934 0 0
8:35 pm 20:35 Clear 30 -0.9 27 -2.6 88 88 SSE 6 9 30.06 1018 10 16.0934 0 0
8:55 pm 20:55 Clear 31 -0.7 28 -2.5 88 88 SSE 6 9 30.05 1018 10 16.0934 0 0
9:15 pm 21:15 Clear 31 -0.6 28 -2.3 88 88 S 7 11 30.04 1017 10 16.0934 0 0
9:35 pm 21:35 Clear 31 -0.8 28 -2.5 88 88 SSE 6 9 30.03 1017 10 16.0934 0 0
9:55 pm 21:55 Clear 31 -0.7 28 -2.3 89 89 SSE 7 11 30.03 1017 10 16.0934 0 0
10:15 pm 22:15 Clear 33 0.7 30 -1 89 89 S 7 11 30.01 1016 10 16.0934 0 0
10:35 pm 22:35 Partly Cloudy 32 0 28 -2 87 87 S 7 11 30.01 1016 10 16.0934 0 0
10:55 pm 22:55 Partly Cloudy 32 0 29 -1.9 87 87 S 7 11 30 1016 10 16.0934 0 0
11:15 pm 23:15 Clear 33 0.6 29 -1.5 86 86 S 9 15 30 1016 10 16.0934 0 0
11:35 pm 23:35 Clear 33 0.5 29 -1.6 86 86 S 9 15 29.99 1016 10 16.0934 0 0
11:55 pm 23:55 Clear 32 0 29 -1.8 88 88 S 8 13 29.99 1016 10 16.0934 0 0

Powered by AerisWeather